Location: F?ge?el
(45.8833°N, 22.5833°E)
Time: 06:01:01
(UTC+00:00)

SL-19 R/B - Pass Details

Date: 17 November 2025
Orbit: 795 x 1008 km, 99.6° (Epoch: 04 December)

Event Time Altitude Azimuth Distance (km) Brightness Sun altitude
Rises 16:24:34 0° 147° (SSE) 3,309 7.1 -15.3°
Reaches altitude 10° 16:26:57 10° 142° (SE) 2,371 6.3 -15.7°
Maximum altitude 16:31:57 51° 68° (ENE) 1,003 4.2 -16.6°
Drops below altitude 10° 16:37:00 10° 354° (N) 2,387 6.5 -17.4°
Sets 16:39:24 0° 349° (N) 3,334 7.3 -17.8°
